Current Version              Previous Version:    01  02  03  04  05  06  07  08  09  10  11  12  13  14  15  16  17  18  19  20  21  22  23  24  25  26  27  28  29  30  
   31  32  33  34  35  36  37  38  39  40  41  42  43  44  45  46  47  48  49  50  51  52  53  54  55  56  57  58  59  60  

[Printable]
838
ASUS44 KFWD 211703
RWRTX
NORTH TEXAS HOURLY WEATHER ROUNDUP
NATIONAL WEATHER SERVICE FORT WORTH TX
1100 AM CST FRI NOV 21 2014

NOTE: "FAIR" INDICATES FEW OR NO CLOUDS BELOW 12,000 FEET WITH NO
SIGNIFICANT WEATHER AND/OR OBSTRUCTIONS TO VISIBILITY.

TXZ118-119-211800-
DALLAS/FORT WORTH METROPLEX

CITY           SKY/WX    TMP DP  RH WIND       PRES   REMARKS
DFW AIRPORT    CLOUDY    62  59  90 SE8       30.12S FOG
DALLAS LOVE    CLOUDY    64  59  83 SE10      30.13S HAZE
FTW MEACHAM    CLOUDY    64  60  87 SE12      30.11S FOG
DAL-EXECUTIVE  CLOUDY    63  59  87 SE10      30.12S FOG
FTW-ALLIANCE   CLOUDY    65  60  84 SE10      30.10F
FTW-SPINKS     CLOUDY    63  61  94 SE7       30.13F FOG
ARLINGTON      CLOUDY    65  59  81 SE15      30.12F
GRAND PRAIRIE  CLOUDY    63  61  94 SE9       30.13S
ADDISON        CLOUDY    64  59  82 S10G16    30.13S FOG
MESQUITE       CLOUDY    64  61  88 SE10      30.14S FOG
$$

TXZ091>094-102>105-117-120-121-131>134-211800-
NORTH CENTRAL TEXAS

CITY           SKY/WX    TMP DP  RH WIND       PRES   REMARKS
DENTON         CLOUDY    63  59  87 SE14      30.11F
MCKINNEY       CLOUDY    63  59  87 SE15      30.12F
ROCKWALL       CLOUDY    63  60  90 S9G20     30.13S
TERRELL        CLOUDY    64  61  90 SE13      30.15S
$$

TXZ083>090-098>101-113>116-127>130-139>142-154-155-211800-
WESTERN NORTH TEXAS

CITY           SKY/WX    TMP DP  RH WIND       PRES   REMARKS
WICHITA FALLS  CLOUDY    60  54  80 SW10      30.08S
ABILENE        MOSUNNY   65  53  65 S17       30.08S
BRECKENRIDGE   CLOUDY    68  55  63 S13       30.08S HAZE
GRAHAM         PTSUNNY   64  58  81 SE9       30.07F
MINERAL WELLS  CLOUDY    65  59  81 S9        30.08F
COMANCHE       CLOUDY    67  61  79 S9        30.09F
$$

TXZ143>147-156>162-174-175-211800-
CENTRAL TEXAS

CITY           SKY/WX    TMP DP  RH WIND       PRES   REMARKS
WACO           FOG       64  62  93 SE10      30.12F VSB 1
WACO-TSTC      CLOUDY    64  63  94 SE5       30.13S FOG
WACO-MCGREGOR  CLOUDY    64  59  82 SE10      30.13F
CORSICANA      CLOUDY    63  60  90 SE8       30.15F
TEMPLE         CLOUDY    64  61  88 SE9       30.12R
KILLEEN        NOT AVBL
KILLEEN-SKYLRK CLOUDY    64  61  88 E8        30.09F
FORT HOOD      CLOUDY    68  63  84 SE8       30.11S
LAMPASAS       MOSUNNY   71  62  74 S9        30.09S
$$

TXZ095>097-106>112-122>126-135>138-148>153-164>167-211800-
EAST TEXAS

CITY           SKY/WX    TMP DP  RH WIND       PRES   REMARKS
PARIS          CLOUDY    57  55  94 SE12      30.18S VSB 3/4
TYLER          CLOUDY    61  58  90 S9        30.17S
LONGVIEW       LGT RAIN  60  58  92 SE9       30.19F FOG
ATHENS         CLOUDY    61  59  94 SE7       30.15S
JACKSONVILLE   CLOUDY    60  59  96 SE7       30.19F
NACOGDOCHES    CLOUDY    57  55  94 SE8       30.20F
LUFKIN         LGT RAIN  64  59  83 SE9       30.19R
$$

SUPPLEMENTAL OBSERVATIONS (CENTRAL)

CITY           SKY/WX    TMP DP  RH WIND       PRES   REMARKS
$$

SUPPLEMENTAL OBSERVATIONS (WEST)

CITY           SKY/WX    TMP DP  RH WIND       PRES   REMARKS
$$

SUPPLEMENTAL OBSERVATIONS (EAST)

CITY           SKY/WX    TMP DP  RH WIND       PRES   REMARKS
$$

SUPPLEMENTAL OBSERVATIONS ARE A COLLECTION OF AUTOMATED INSTRUMENTS
THAT ARE MAINTAINED BY A VARIETY OF FEDERAL AND STATE AGENCIES.
CERTAIN ELEMENTS...SUCH AS HUMIDITY VALUES AND SUSTAINED WIND
SPEEDS...MAY BE APPROXIMATED.